Location: Bauen
(46.9356°N, 8.5784°E)
Time: 17:30:14
(UTC+00:00)

PAYLOAD A - Pass Details

Date: 18 February 2020
Orbit: 692 x 831 km, 98.3° (Epoch: 31 March)

Event Time Altitude Azimuth Distance (km) Brightness Sun altitude
Rises 03:28:19 0° 16° (NNE) 3,129 7.6 -30.8°
Reaches altitude 10° 03:30:34 10° 18° (NNE) 2,221 6.8 -30.5°
Enters shadow 03:34:30 55° 46° (NE) 887 4.5 -29.8°
